GFSWCAN_850_thetae_231.txt.gz
Theta_e
320 319 318 319 319 318 319 316 313 315 314 313 312 313 315 318 319 319 324 323 321 321 321 321 325 324 323 324 322 324 325 325 323 325 322 323 327 327 329 329 329 328 328 329 328 333 336 333 336 335 333 336 337 338
319 318 318 318 317 318 318 314 314 315 315 314 312 313 315 317 319 319 318 318 319 322 321 322 323 325 323 323 322 323 323 323 326 323 323 322 326 325 325 331 322 328 326 328 327 330 328 330 334 335 336 335 329 329
318 317 316 316 317 317 314 314 315 315 315 314 313 313 315 317 318 319 319 319 321 322 321 322 326 325 323 324 323 321 323 324 325 326 323 320 325 320 323 321 325 325 325 326 326 327 327 328 328 327 327 327 327 327
317 317 316 316 316 315 315 314 315 315 315 314 314 314 316 317 318 318 318 320 322 321 319 325 325 325 325 325 323 323 322 323 323 325 323 319 323 322 321 320 321 323 323 321 323 326 327 327 327 327 328 327 327 327
317 317 318 315 315 316 316 315 315 316 315 315 314 315 316 317 317 318 318 320 321 320 319 320 324 324 324 324 323 323 323 322 321 322 319 319 320 319 317 318 320 323 322 322 322 326 325 327 327 327 327 327 326 326
317 317 318 315 316 317 316 316 316 316 316 315 315 315 316 317 317 319 322 321 321 321 318 315 318 320 322 324 323 324 322 321 322 323 321 323 325 323 321 321 322 325 326 328 327 327 328 327 327 327 327 327 327 327
317 317 316 315 316 317 316 316 315 316 315 314 314 315 316 316 317 317 324 322 321 322 317 319 317 321 322 322 324 322 322 321 322 322 321 321 323 323 318 322 326 327 327 328 328 328 327 327 327 327 327 327 327 326
316 317 314 314 316 316 314 314 314 313 313 314 314 315 315 316 316 317 320 319 318 318 318 316 316 319 321 322 322 322 322 322 322 322 323 322 322 322 321 322 325 326 326 326 326 326 326 326 327 327 327 326 326 326
316 316 313 314 315 311 309 309 310 310 312 314 314 314 315 315 319 321 320 320 320 318 321 319 316 317 320 321 322 324 322 320 321 320 320 322 319 322 321 324 326 326 327 327 327 326 326 326 327 326 326 326 326 326
314 314 314 312 307 306 306 307 308 312 313 313 314 316 320 320 321 319 319 319 320 318 316 316 318 316 319 319 320 321 324 319 321 320 323 319 319 324 325 325 325 325 327 326 327 326 326 327 327 326 326 326 326 328
313 313 308 305 305 305 306 306 311 312 312 313 318 320 320 319 318 316 320 319 319 318 319 320 319 315 317 317 318 323 319 318 324 321 320 319 321 321 327 327 327 326 327 327 327 327 326 326 326 325 325 327 327 326
310 306 303 303 305 304 305 308 311 311 312 315 318 318 319 318 318 320 317 318 317 318 319 318 320 319 320 319 320 320 321 318 324 320 322 324 319 328 327 328 327 327 327 327 327 326 326 326 326 327 326 326 325 325
305 305 304 305 304 304 304 309 310 312 314 316 317 318 319 318 318 321 322 318 317 319 319 321 319 321 321 323 319 317 322 320 320 320 324 322 327 328 328 327 327 327 326 326 325 325 325 326 326 327 326 325 324 322
303 303 304 304 304 303 305 309 310 313 315 315 317 310 314 316 317 317 316 316 319 320 321 321 323 321 322 320 318 321 318 321 324 325 323 323 328 328 327 327 327 327 326 325 323 322 323 325 326 325 324 322 320 319
302 303 303 303 303 304 305 308 311 312 313 315 316 315 314 316 317 318 319 318 319 319 322 323 322 322 319 321 319 320 326 326 323 324 321 327 328 327 327 327 327 326 326 323 323 324 325 324 322 320 318 317 316 315
302 302 302 302 302 304 305 307 310 312 312 313 313 314 315 315 317 318 319 320 320 321 321 321 319 320 321 319 323 324 325 326 323 323 326 327 327 327 327 326 324 324 322 323 324 323 319 318 317 317 317 316 316 316
301 302 302 302 303 304 307 308 309 311 311 312 311 313 313 314 314 315 317 317 319 320 320 318 319 320 318 320 322 321 323 321 323 324 324 324 324 324 325 325 324 324 322 323 322 319 317 317 317 316 316 316 315 313
304 304 302 302 304 306 307 309 311 311 311 312 312 312 313 313 314 313 313 313 318 320 319 319 319 319 320 322 322 320 323 322 322 321 321 322 322 324 324 324 325 324 323 322 319 316 317 316 315 315 314 314 314 314
304 303 302 304 307 308 309 309 310 310 310 311 311 311 311 311 311 311 311 311 315 318 319 319 320 317 316 317 319 321 320 319 319 319 320 320 320 321 322 323 323 322 323 321 316 317 316 312 310 310 311 311 312 312
303 302 304 306 307 308 308 309 309 309 309 310 310 310 310 310 310 310 310 311 314 315 317 316 315 319 318 318 319 320 319 318 318 317 318 320 321 322 323 321 321 323 323 320 314 315 310 308 308 308 307 307 307 307
303 303 304 306 306 307 309 309 308 308 309 310 310 310 310 310 311 311 312 313 314 316 315 317 317 317 316 317 318 318 319 319 319 318 317 318 321 321 321 319 320 321 322 320 315 312 310 311 310 310 309 308 307 306
303 304 304 306 306 306 307 308 308 309 310 311 311 311 312 311 311 312 311 312 313 314 314 315 315 315 317 317 317 316 316 316 317 319 318 319 319 320 320 321 321 321 322 320 316 314 314 311 311 311 310 310 309 308
304 305 305 305 306 306 305 307 308 310 308 311 313 312 311 312 314 313 312 312 312 312 312 312 313 313 315 316 316 315 316 316 317 318 318 319 320 320 320 320 321 320 321 321 318 318 316 315 312 312 312 312 311 310
304 305 305 305 305 305 307 309 309 310 312 311 310 312 311 313 314 315 312 315 315 315 315 315 315 314 314 315 315 316 316 317 317 318 319 320 319 319 319 320 320 320 320 319 318 319 320 318 317 313 313 312 312 311
304 304 306 306 307 306 309 309 311 312 313 311 311 311 312 315 312 313 314 315 316 317 317 316 317 317 317 316 317 318 319 319 319 320 320 319 319 319 320 320 320 320 319 318 318 318 317 315 312 312 312 312 311 311
305 306 305 308 309 307 310 311 310 312 311 313 313 312 315 313 315 314 313 319 319 318 318 318 318 318 319 319 319 319 319 319 319 319 319 319 319 320 319 318 320 320 319 319 319 315 313 312 312 312 312 312 312 311
305 305 308 309 310 311 310 312 313 312 312 312 312 315 316 317 318 314 317 317 316 318 319 318 318 319 319 319 319 319 319 319 320 320 320 319 319 319 319 319 320 319 317 317 319 316 313 313 313 313 312 312 312 312
305 307 308 311 311 311 310 311 312 312 314 314 314 316 317 317 317 317 315 316 318 322 322 320 318 319 319 320 319 320 320 319 319 319 318 318 319 319 319 318 318 317 316 315 315 314 314 314 314 314 313 313 313 313
307 308 309 311 311 313 312 312 313 314 314 315 314 314 314 315 316 317 317 318 321 321 320 319 319 320 321 321 319 320 320 319 318 319 318 319 319 320 320 319 318 318 317 316 317 316 315 315 315 314 314 315 315 313
309 309 311 313 313 314 314 314 313 314 314 315 315 315 315 318 319 318 318 320 321 321 321 321 321 320 319 319 319 319 319 319 319 319 318 318 319 319 318 318 319 317 316 316 316 315 315 315 315 315 315 316 316 315
313 313 313 314 316 316 315 315 314 314 316 318 318 317 318 320 320 320 320 321 321 320 320 320 320 319 319 319 319 319 319 320 320 320 320 320 318 318 318 318 319 318 317 316 316 316 315 316 317 316 316 316 315 315
314 316 318 320 320 320 318 317 318 319 317 319 321 320 317 321 321 320 320 321 320 320 320 320 320 320 320 319 319 320 320 320 320 319 319 319 319 318 318 317 318 317 317 317 315 316 317 317 317 317 316 316 315 315
319 319 318 320 320 320 321 321 320 320 321 320 317 318 320 320 321 320 320 320 320 320 320 320 321 321 320 320 320 320 320 320 320 320 319 319 318 318 319 319 318 318 318 317 316 317 318 318 318 318 318 318 317 316

GFSWCAN_850_thetae_234.txt.gz
Theta_e
321 320 318 320 319 319 318 318 318 314 315 315 314 312 313 315 318 319 321 323 320 321 320 321 323 323 322 322 321 323 323 324 322 323 322 322 325 325 329 327 328 327 327 325 325 330 333 331 334 334 331 337 340 342
320 319 320 319 318 318 316 318 316 314 315 315 314 313 312 314 317 318 318 319 318 320 320 321 321 322 324 323 322 322 322 322 324 324 321 321 325 322 323 330 322 327 324 328 326 327 326 328 332 335 337 338 338 339
320 318 319 318 318 317 316 317 314 314 315 314 314 313 313 314 317 318 318 318 319 321 321 321 324 324 323 323 322 321 322 325 325 325 322 319 324 318 323 320 323 322 323 325 325 326 326 329 329 333 335 332 329 327
319 319 319 318 317 316 316 315 314 315 315 315 315 314 314 315 316 317 318 318 321 321 319 322 325 324 324 323 323 322 322 323 324 324 322 318 322 320 319 319 320 321 322 321 323 325 326 326 327 327 327 327 327 327
319 319 318 317 317 316 315 315 315 314 315 316 315 315 315 315 316 317 318 318 320 320 319 320 321 323 324 325 324 323 322 322 321 321 318 319 318 318 315 316 317 320 320 322 324 326 326 327 327 327 327 327 326 327
318 318 317 317 317 316 316 316 315 315 315 316 315 315 315 316 316 317 321 320 320 320 320 313 318 320 321 323 323 323 322 322 320 322 320 321 322 321 319 320 321 322 324 325 326 327 327 328 327 327 327 326 326 327
318 317 317 317 317 315 316 317 316 315 316 315 314 314 315 315 316 317 322 322 320 321 317 316 316 319 321 321 321 322 322 321 322 322 320 320 321 321 316 320 324 326 326 326 327 327 327 327 327 327 327 327 327 327
317 317 317 317 316 315 316 316 315 315 315 314 314 314 314 315 316 317 317 320 318 318 317 315 314 318 320 320 321 321 321 321 322 321 321 320 320 320 320 321 323 326 326 327 327 327 327 327 327 326 326 326 326 326
317 316 316 316 314 314 315 314 311 311 312 312 314 314 314 315 317 320 318 318 319 318 319 317 316 317 319 319 320 321 321 318 320 318 318 320 317 321 320 323 325 325 325 326 326 327 326 326 326 326 326 326 326 326
316 315 316 316 314 314 312 309 307 308 310 313 313 315 318 318 319 319 319 319 319 319 317 314 317 316 318 317 319 321 321 316 321 319 321 317 318 323 323 323 325 325 325 326 326 326 326 326 326 326 326 326 325 326
314 315 314 313 313 310 307 306 306 310 312 313 315 320 320 319 318 316 319 319 318 317 319 318 316 314 317 316 316 321 318 316 323 320 320 317 319 320 327 327 326 326 324 326 325 326 326 326 326 326 325 326 326 326
313 313 313 312 308 305 305 306 309 312 312 315 318 319 319 318 317 318 315 317 315 317 317 317 318 318 318 317 319 318 320 316 323 319 321 323 318 326 326 327 327 326 327 327 326 326 326 326 326 326 326 326 325 325
311 310 308 305 304 305 304 307 311 312 314 316 317 318 318 317 317 319 320 318 316 317 318 319 319 320 321 321 317 316 321 320 317 319 322 320 326 326 326 326 326 326 326 325 325 324 322 322 324 325 325 325 323 320
306 305 305 305 304 304 304 308 310 312 315 316 316 309 314 316 315 316 317 317 318 319 319 319 321 320 320 318 315 320 317 319 322 323 322 319 326 326 327 326 326 326 325 323 321 321 323 323 322 320 318 317 317 317
304 304 304 304 304 304 305 309 310 313 313 314 315 315 313 315 316 317 317 317 318 319 321 321 321 321 318 320 318 319 324 325 322 323 320 326 327 327 327 327 326 324 321 321 322 323 321 318 317 317 317 317 316 316
303 303 303 303 303 304 305 308 311 313 312 313 313 314 315 313 316 316 317 318 318 320 320 320 319 321 319 318 323 323 324 325 322 320 325 327 327 327 326 326 325 323 322 322 322 320 317 318 316 315 315 315 315 314
302 302 302 303 303 305 306 310 311 312 311 311 311 312 313 313 313 315 315 312 318 320 318 316 320 321 316 319 321 319 321 321 324 324 324 325 324 324 325 324 324 324 322 322 321 317 317 315 311 312 312 313 313 313
303 303 302 303 304 306 308 309 310 310 311 311 310 311 312 313 314 314 312 311 316 319 319 319 318 319 320 321 320 318 322 322 322 321 321 322 322 323 323 324 324 324 322 322 318 316 316 310 308 308 311 311 311 312
304 302 302 304 307 308 309 309 310 310 310 310 311 311 311 311 311 312 311 310 312 317 318 318 318 317 315 316 318 321 321 321 320 319 319 319 320 320 321 322 324 322 321 321 318 315 310 307 307 307 306 306 306 306
302 303 305 306 307 308 308 309 309 309 308 309 309 310 309 310 309 309 309 310 310 313 317 315 315 318 318 319 319 319 319 318 317 317 317 317 318 320 321 323 322 321 321 321 316 313 308 309 309 309 308 307 306 306
303 304 305 306 307 308 308 308 308 308 308 309 309 309 310 310 310 309 309 310 311 313 313 316 317 317 318 317 316 317 318 319 318 318 318 317 317 319 321 320 320 320 321 321 317 313 311 310 310 310 310 309 308 307
304 305 306 306 306 306 307 307 308 308 308 310 310 310 311 310 310 311 310 311 312 312 312 313 314 314 315 315 314 316 318 317 316 317 316 317 318 317 319 319 320 320 320 321 320 315 313 311 311 311 311 311 311 310
304 305 305 305 306 306 305 306 307 308 307 308 311 310 309 311 312 311 310 310 311 311 311 311 311 312 313 313 313 314 316 316 316 315 315 316 317 318 318 320 319 320 320 320 320 317 315 315 312 312 312 313 313 311
304 304 305 305 305 304 306 307 308 308 310 309 308 310 310 311 313 313 310 312 314 314 314 314 314 314 313 312 313 313 315 314 314 315 316 316 316 317 319 319 318 319 319 319 319 318 317 318 317 313 313 312 312 311
304 305 305 304 306 305 307 308 310 310 313 312 311 309 309 312 311 311 312 313 314 315 316 317 316 315 315 315 315 315 315 315 316 318 318 318 318 319 319 319 319 320 320 320 318 318 318 318 314 312 312 312 311 310
304 306 305 307 308 306 309 311 311 312 311 311 311 311 313 311 313 312 311 317 318 317 317 318 318 318 318 319 319 319 319 319 319 319 319 319 319 319 319 319 319 319 319 316 316 318 315 313 312 312 312 312 312 311
305 305 306 307 308 309 309 310 311 311 312 312 310 314 315 316 315 312 316 315 315 315 316 317 317 318 319 319 319 318 318 318 318 319 319 320 319 320 319 319 319 319 318 319 318 318 314 313 313 313 313 312 312 312
305 306 306 308 309 310 308 308 309 310 310 313 314 316 316 317 316 314 314 316 317 319 320 320 319 318 318 319 319 320 320 319 319 319 318 318 319 319 318 319 319 318 317 317 318 318 315 313 313 313 314 314 313 313
306 307 308 308 310 311 311 310 312 313 314 314 314 314 313 312 313 315 318 319 321 321 319 319 319 319 319 319 318 319 320 319 319 319 319 319 318 319 319 319 319 318 316 315 314 314 314 314 314 314 314 314 314 314
308 308 310 312 312 312 312 313 313 313 313 313 314 314 314 316 319 321 321 320 321 320 321 321 321 320 320 319 319 319 319 319 319 319 319 319 319 318 318 318 317 317 317 317 316 316 315 315 315 315 315 315 315 316
311 310 311 312 314 315 314 313 313 313 314 316 317 316 317 319 320 320 320 319 320 319 319 319 319 319 319 319 319 319 319 319 319 319 320 320 320 319 318 318 319 318 318 316 316 316 315 315 315 316 316 316 315 315
313 314 316 319 319 318 316 317 316 318 318 319 320 318 318 319 320 320 320 320 320 320 319 318 318 318 318 319 319 319 319 320 319 319 319 319 318 318 318 317 317 316 317 317 317 316 315 316 317 317 317 316 315 314
318 319 319 319 320 320 319 320 320 319 320 319 318 318 318 318 319 320 321 320 320 320 320 321 320 320 320 320 320 320 319 320 320 319 319 319 318 319 318 318 318 317 317 317 317 316 317 317 316 317 317 317 317 317

GFSWCAN_850_thetae_237.txt.gz
Theta_e
320 321 321 321 320 319 319 318 317 318 315 314 315 314 312 313 315 318 319 321 321 319 320 320 322 323 322 322 328 324 328 328 329 333 332 332 332 331 334 333 333 337 336 333 332 333 334 333 336 342 339 338 342 344
321 321 321 320 319 319 318 317 316 318 314 314 315 314 313 312 315 317 318 319 318 318 320 320 320 321 321 323 322 321 324 326 327 331 329 330 333 332 333 334 327 334 332 336 334 336 332 330 333 335 335 341 340 343
320 320 320 319 319 319 318 317 316 317 314 315 314 314 314 313 315 317 318 318 318 320 320 321 322 322 322 322 323 322 321 325 325 325 327 328 334 329 334 332 329 328 327 333 334 332 332 331 330 333 336 336 336 334
320 319 319 319 319 318 317 316 316 315 314 315 314 314 314 314 315 316 317 317 318 320 321 321 324 322 323 323 323 322 322 323 325 324 326 329 330 324 329 327 328 327 327 331 332 330 329 329 328 330 330 328 327 327
319 318 319 318 319 318 317 316 316 315 314 315 315 315 315 315 315 316 317 318 319 319 321 321 320 322 322 323 323 323 322 322 322 323 325 325 323 324 322 323 327 324 329 328 328 332 333 332 328 327 327 327 327 327
319 318 318 318 318 317 317 316 316 316 315 315 315 315 315 315 316 316 319 319 319 320 320 321 317 319 320 323 324 322 322 321 321 323 323 322 321 324 328 329 327 324 322 323 328 326 328 327 327 327 327 327 326 326
319 318 317 317 317 316 317 316 317 316 315 315 315 315 314 315 316 316 321 321 320 320 319 319 320 318 320 320 321 321 321 321 321 322 323 323 323 323 325 327 327 327 325 325 325 326 327 327 328 327 327 327 327 327
318 317 317 316 316 316 317 316 317 316 316 315 315 314 314 314 315 316 317 320 318 319 317 320 321 319 319 320 321 320 321 321 321 322 321 324 321 322 326 325 324 323 324 325 326 326 327 327 327 327 327 327 326 326
317 317 316 316 316 316 315 315 316 315 313 313 313 314 314 314 315 318 317 318 318 317 319 320 321 323 319 319 320 320 320 324 320 324 323 323 325 328 327 326 325 325 324 327 326 327 326 326 326 326 326 326 327 327
316 316 316 316 316 316 314 315 314 309 310 311 313 314 315 316 319 319 319 319 319 318 318 319 318 323 319 319 322 325 322 325 327 325 322 325 327 325 322 323 323 324 325 324 326 327 326 326 327 327 326 326 326 326
315 315 315 315 316 316 315 314 307 307 310 312 314 319 319 319 318 317 319 320 319 320 318 319 316 320 317 321 324 322 326 325 329 327 327 326 327 325 326 326 326 325 323 324 325 326 326 326 326 326 325 326 326 326
314 314 314 314 314 314 312 307 306 309 312 314 318 319 318 318 317 320 320 319 320 320 318 319 320 318 317 316 322 322 326 324 328 323 327 328 327 326 326 326 326 326 326 326 326 326 326 326 325 325 325 325 324 323
313 313 313 313 312 309 306 305 308 312 313 317 317 318 318 317 318 320 321 322 322 319 319 319 321 320 318 318 320 323 326 326 321 326 327 327 327 326 326 326 326 325 325 325 324 322 321 322 323 322 320 318 317 317
311 311 311 308 305 305 304 306 310 312 316 315 316 312 317 319 319 320 321 320 320 319 319 319 321 322 320 322 320 325 322 324 326 325 325 327 328 326 326 326 326 325 322 320 320 321 321 319 318 317 317 317 316 316
309 307 305 305 305 304 304 308 310 313 314 314 316 316 316 316 316 317 317 317 318 318 321 321 322 322 323 325 322 323 326 326 326 326 327 327 326 326 326 326 325 321 320 320 321 320 318 317 316 313 313 314 314 315
305 305 305 305 304 304 306 309 311 313 313 313 312 315 316 316 317 317 318 318 315 319 319 320 323 324 324 323 325 324 325 327 328 326 325 326 326 327 327 326 324 322 321 321 321 318 317 314 309 311 314 313 313 313
304 304 304 304 305 305 308 311 312 312 312 311 312 312 313 314 315 315 313 312 317 319 321 321 324 323 320 325 324 324 327 327 327 324 326 326 326 325 325 325 324 323 321 320 320 317 316 311 308 311 311 311 310 309
303 303 303 303 304 306 308 310 310 310 311 312 312 311 312 313 314 314 311 311 316 318 319 321 319 322 324 324 326 326 324 323 323 323 323 324 323 324 323 323 324 324 322 321 319 316 313 307 307 307 306 305 305 305
303 303 303 305 307 309 309 310 310 311 311 310 310 311 311 311 312 312 312 310 311 316 318 320 322 321 322 320 322 323 322 321 322 320 319 319 320 320 321 322 322 323 322 321 319 315 308 307 307 307 307 306 306 305
303 303 306 307 308 308 308 309 310 309 310 309 309 309 309 309 309 309 309 310 310 311 317 319 321 320 320 320 321 321 320 319 318 317 317 316 317 319 320 321 322 323 321 321 318 314 308 309 309 309 309 308 307 306
303 305 306 308 307 308 308 308 308 308 308 308 308 309 310 309 310 310 310 308 310 312 314 316 318 318 319 318 318 317 317 318 318 318 318 318 317 317 318 321 321 320 320 321 320 315 310 310 310 310 310 310 310 310
305 306 306 306 306 306 307 307 308 308 308 309 309 310 311 311 311 311 310 310 312 311 312 313 313 316 317 317 317 316 315 316 318 319 318 317 316 316 317 318 319 319 319 320 320 319 313 311 311 311 311 312 312 311
306 305 305 305 306 305 305 306 308 308 309 310 311 313 313 312 312 310 312 311 311 310 309 310 311 311 312 313 314 314 314 314 315 316 316 316 315 315 316 317 318 319 319 319 320 319 314 313 311 311 312 313 313 312
305 305 305 305 305 305 306 308 308 308 310 311 312 313 313 313 311 313 315 314 313 313 313 313 311 311 312 312 312 312 312 313 313 313 316 315 315 315 315 317 317 318 319 319 319 319 317 315 316 312 312 313 312 310
304 304 304 303 306 306 308 310 310 312 312 312 313 313 314 311 317 317 316 315 315 316 318 317 317 317 315 315 314 314 314 314 313 313 314 314 315 316 316 316 318 319 318 319 319 319 318 317 316 313 312 312 311 310
304 305 305 307 307 307 309 312 312 312 313 312 312 313 313 316 317 316 315 317 317 316 315 316 317 318 318 318 319 319 318 316 316 316 318 319 319 318 319 319 319 319 319 319 319 317 316 318 313 312 312 312 312 312
306 306 306 306 308 309 310 311 311 313 314 314 314 316 317 317 317 317 315 315 315 316 316 317 317 317 317 318 318 318 318 318 318 318 318 319 319 319 319 319 319 319 319 317 316 315 317 315 313 313 313 312 312 312
305 305 307 308 308 309 310 310 312 313 313 313 315 316 317 317 316 314 315 316 317 319 318 318 320 319 317 318 319 319 320 319 319 319 318 318 319 319 319 319 319 319 319 318 318 318 318 314 313 313 313 313 313 313
306 307 306 308 309 310 311 311 312 313 314 314 314 314 313 312 311 313 319 320 321 321 320 319 318 318 318 319 319 320 319 319 319 320 319 319 319 318 319 318 318 318 316 317 317 318 315 314 313 313 313 314 314 314
307 307 309 311 311 311 312 312 313 313 312 313 313 313 313 314 319 320 320 320 320 321 321 321 320 320 319 319 320 319 318 318 319 319 320 320 319 318 317 318 318 318 316 315 315 314 314 314 314 314 314 315 315 315
309 309 310 311 313 313 312 312 313 313 313 314 316 315 315 318 320 320 320 319 319 318 318 318 318 319 319 319 319 319 320 319 319 320 320 320 319 318 318 318 317 317 317 316 316 316 316 316 315 315 315 315 316 316
312 312 314 318 318 317 315 314 314 315 317 317 319 318 318 319 320 320 320 320 319 318 318 318 318 318 319 319 319 319 320 320 319 319 319 319 318 318 318 318 318 318 317 317 317 317 315 315 316 316 317 317 317 315
316 317 317 319 319 318 318 319 320 320 320 320 319 319 320 320 321 319 320 320 321 320 320 320 320 320 320 320 319 318 317 317 316 316 317 319 319 319 318 317 318 318 317 316 317 318 317 316 317 317 316 316 316 317

GFSWCAN_850_thetae_240.txt.gz
Theta_e
319 319 319 319 320 321 320 319 319 318 318 317 314 315 314 312 313 316 319 319 322 325 325 324 324 328 327 329 334 330 333 333 335 336 336 336 334 335 335 336 336 336 336 335 334 335 336 335 339 340 341 342 344 345
318 319 319 320 321 320 320 318 318 317 317 315 314 315 314 313 313 316 319 318 319 320 324 321 322 322 324 325 327 327 331 333 333 335 334 334 334 335 334 334 335 334 334 340 336 340 338 336 340 339 339 342 344 345
318 319 320 320 320 320 319 319 318 316 317 314 314 315 314 313 313 315 317 318 318 322 324 325 325 324 321 322 324 327 325 329 331 330 334 335 335 334 334 333 333 334 333 335 338 337 337 336 337 337 339 339 340 339
317 319 319 319 319 319 319 318 317 316 316 314 315 314 315 314 314 315 316 317 318 323 325 325 323 323 323 323 323 324 324 325 328 329 330 332 332 331 331 333 333 332 333 334 335 335 335 335 335 337 336 335 334 333
318 319 319 319 319 319 319 318 317 316 315 314 315 315 315 315 315 315 316 317 318 322 325 324 323 322 322 322 324 323 324 325 326 326 327 327 329 330 329 329 328 329 330 332 329 329 333 332 334 334 334 333 331 330
318 319 319 318 318 318 318 317 317 316 315 315 315 316 315 315 315 316 321 319 318 319 323 324 321 322 322 323 324 324 324 325 324 325 326 326 327 326 328 327 328 327 326 327 327 329 327 330 332 331 331 331 330 329
317 319 318 317 318 318 317 317 316 316 316 315 315 316 315 315 315 318 322 322 319 320 323 323 323 321 321 323 324 324 324 325 325 325 325 326 326 325 328 329 327 328 329 329 329 330 332 331 331 330 330 329 328 329
318 318 317 317 317 317 316 317 316 317 317 315 315 315 314 314 314 317 320 320 319 320 321 324 324 322 321 325 326 324 325 325 325 326 326 326 326 325 328 327 325 326 326 329 330 330 331 331 330 330 330 329 329 329
318 317 317 317 316 316 316 317 315 316 316 315 314 314 314 314 317 320 316 319 317 319 323 323 324 325 321 325 326 324 326 328 326 327 327 327 329 330 329 328 328 329 329 327 330 329 329 329 330 330 329 329 329 329
317 316 316 316 315 316 316 315 316 316 313 312 313 314 318 318 318 318 317 321 321 322 322 324 323 326 322 324 325 327 325 328 329 328 327 328 328 328 330 329 329 329 329 329 328 329 329 330 330 330 330 330 330 330
316 316 316 315 315 316 315 315 316 314 310 312 315 320 318 318 319 320 322 322 322 323 322 321 322 323 321 326 327 327 328 328 328 329 329 330 329 331 331 331 330 330 328 329 330 330 330 330 330 330 331 330 329 327
315 315 315 315 315 315 315 315 310 307 311 314 318 318 319 320 321 322 322 323 323 323 321 322 322 320 322 322 327 327 328 329 329 328 329 329 333 332 332 331 330 329 329 330 330 330 330 329 328 328 326 325 323 322
314 314 314 314 314 314 314 312 307 308 313 318 318 320 321 321 322 322 323 323 324 322 321 321 323 320 321 322 325 328 328 328 326 329 329 330 333 332 331 331 330 330 329 329 328 327 326 324 323 321 322 321 320 320
313 313 313 313 313 312 310 306 307 312 317 318 320 320 321 322 322 322 322 323 322 322 322 323 322 323 324 324 325 327 327 326 327 327 327 329 332 332 332 330 330 328 326 325 325 323 322 322 321 319 317 317 318 317
312 312 311 310 308 306 305 307 310 314 315 318 319 322 320 319 320 320 321 321 321 322 323 324 325 325 326 325 326 326 327 327 326 326 329 331 332 331 331 329 327 325 323 324 323 322 321 319 317 316 317 317 316 315
310 308 307 306 305 304 306 309 311 314 313 316 316 317 317 319 320 320 321 321 320 321 323 325 326 326 325 325 326 325 323 325 327 328 330 331 331 329 328 326 325 326 325 324 323 321 319 317 316 316 316 315 315 314
306 306 305 305 304 306 309 311 313 314 315 315 315 315 316 318 320 319 318 317 317 322 325 323 325 324 325 324 323 325 325 327 329 327 327 331 328 326 326 326 324 323 325 324 322 321 318 315 315 315 314 312 311 311
305 305 305 305 307 309 310 311 312 313 314 314 316 316 316 317 318 317 315 314 320 323 322 324 323 324 324 324 324 325 325 327 328 327 327 329 330 329 324 326 325 324 326 324 323 320 317 314 314 312 312 311 310 309
304 304 304 305 308 309 310 310 311 313 313 314 314 314 314 315 315 315 315 314 315 320 322 323 324 323 322 322 322 323 325 325 324 324 325 325 326 327 327 326 327 328 325 324 322 320 317 313 313 312 311 311 310 309
304 304 305 306 308 309 311 310 310 312 312 313 312 312 313 313 312 312 313 314 315 316 321 323 323 322 321 321 322 324 324 324 323 322 322 322 322 321 323 325 326 327 326 324 322 320 316 313 312 312 311 311 311 310
304 305 306 308 308 308 309 308 310 311 311 311 311 311 311 311 312 312 314 314 314 317 318 319 320 321 322 322 323 323 323 322 321 320 320 320 320 321 322 323 327 325 323 323 322 319 316 315 314 313 312 312 312 312
306 307 307 306 308 308 309 308 310 310 311 312 312 312 313 313 313 313 313 313 314 316 317 317 318 319 321 321 321 320 321 319 319 321 321 320 319 320 320 321 321 322 322 322 322 321 319 316 314 313 313 313 313 314
305 305 305 305 308 307 307 307 311 310 312 312 313 315 315 315 315 313 314 313 313 313 312 313 314 315 317 317 318 320 320 319 318 317 318 319 319 320 319 319 319 320 321 321 320 320 320 316 313 313 313 313 314 314
305 305 307 308 307 308 309 310 310 311 311 313 313 314 314 314 315 315 316 315 315 315 315 316 315 315 315 315 314 314 314 314 315 315 316 317 317 317 316 316 316 318 320 320 321 322 321 317 315 312 314 315 314 314
305 306 306 302 308 308 310 311 312 313 313 313 314 314 315 314 316 317 318 316 317 318 319 320 319 318 316 316 316 317 317 316 315 315 314 314 315 316 316 317 319 319 320 321 319 321 322 317 316 316 312 312 315 315
304 307 306 308 308 310 311 313 313 313 313 313 314 314 314 316 317 317 317 318 321 320 320 320 320 321 321 321 320 320 321 320 318 316 316 316 317 318 320 319 320 320 322 320 319 320 320 316 316 312 312 315 314 313
308 308 308 308 309 311 312 312 313 314 315 315 315 316 318 318 318 318 318 319 318 318 317 317 317 319 320 321 321 321 321 320 321 320 321 322 321 322 322 321 319 319 319 320 319 318 316 313 314 315 316 316 316 316
306 306 309 309 309 309 311 312 313 314 314 314 315 317 318 317 316 315 315 315 317 319 319 318 318 319 319 320 321 322 322 322 322 322 321 321 321 321 322 321 319 319 319 319 319 317 317 318 317 316 316 316 316 316
307 307 308 310 310 311 312 313 313 314 315 315 314 313 312 311 312 314 318 318 319 321 320 318 318 319 318 321 322 322 322 322 321 321 320 320 321 321 321 321 319 320 321 320 317 318 319 319 317 317 317 317 316 316
308 308 309 311 311 312 312 313 312 313 312 311 312 311 312 313 319 320 321 322 323 323 323 321 321 321 322 322 321 321 321 322 321 320 319 319 318 319 320 319 319 318 318 318 319 318 317 316 316 316 316 315 316 317
309 309 309 310 312 313 312 311 312 312 313 313 314 314 314 318 320 322 323 322 322 320 320 321 321 321 321 320 320 321 321 321 322 322 321 321 320 319 319 319 318 318 318 318 317 316 316 316 316 317 317 318 317 316
310 311 312 316 318 318 317 316 317 318 318 318 321 320 320 321 321 319 322 323 321 321 321 322 321 321 322 322 322 322 320 321 321 321 320 321 321 320 319 320 319 319 318 317 317 318 317 317 318 318 319 319 318 317
316 315 315 320 320 321 321 320 321 322 322 322 322 321 321 321 321 323 323 322 322 323 324 323 321 320 321 321 319 318 317 316 315 315 317 318 320 320 320 320 319 319 318 318 318 318 318 320 320 319 319 319 319 318

GFSWCAN_850_thetae_246.txt.gz
Theta_e
318 319 319 318 315 318 320 320 321 320 321 321 320 320 317 315 314 313 325 326 326 328 329 331 331 332 334 336 340 339 338 337 337 337 337 342 346 344 342 338 340 339 343 341 340 339 343 339 340 340 345 343 343 340
317 319 320 318 316 318 319 320 320 320 321 320 319 319 315 315 314 313 321 326 324 324 326 326 328 328 330 332 332 335 336 339 338 338 342 339 343 339 342 343 336 338 341 341 338 342 342 339 339 342 341 342 343 345
316 318 319 317 316 318 318 319 319 320 321 319 318 317 315 315 314 313 319 323 323 325 325 326 326 328 327 329 330 331 335 336 337 336 338 341 344 338 342 342 339 339 336 337 337 335 338 338 338 339 338 338 343 343
316 319 319 317 316 318 318 319 319 320 319 319 318 315 315 315 315 313 314 323 323 325 328 329 328 329 329 329 329 330 331 332 332 334 334 336 336 336 336 336 335 335 337 337 336 334 333 335 335 334 338 339 339 338
316 318 318 318 317 318 319 319 319 319 319 318 317 315 315 315 315 314 314 318 322 325 331 330 329 329 328 327 328 329 330 330 332 333 334 335 333 334 334 334 334 332 334 332 332 333 334 336 335 336 336 336 335 335
317 318 318 318 318 318 318 319 319 319 318 317 315 315 315 315 315 315 324 322 322 323 325 330 329 328 328 327 328 329 330 330 331 333 333 333 332 332 333 333 330 330 329 331 332 331 331 332 331 331 335 334 333 333
316 317 318 317 317 318 318 319 319 319 318 316 315 315 316 315 315 320 325 326 322 324 325 326 328 327 327 328 328 328 328 329 330 330 331 330 331 330 331 332 328 331 332 332 331 330 330 330 329 329 331 333 332 332
315 317 317 317 318 318 318 318 318 318 317 315 315 316 316 316 315 316 318 321 320 324 325 329 329 328 327 328 329 328 329 328 329 329 330 330 331 331 332 329 328 331 331 330 329 330 330 332 331 332 332 332 332 331
314 316 317 317 318 317 317 318 317 317 316 315 315 316 316 315 322 323 322 321 320 324 327 326 328 329 327 327 328 329 329 331 329 330 329 331 332 333 332 331 331 330 331 332 330 331 331 331 333 332 332 331 331 333
315 316 317 317 318 317 317 317 317 316 317 315 314 317 321 322 321 321 315 322 322 324 325 329 327 328 328 326 329 330 330 331 332 331 330 332 332 330 331 333 333 332 332 331 329 331 331 331 330 333 332 334 334 334
315 316 317 317 316 316 316 316 316 316 317 314 317 322 322 320 319 323 324 324 324 324 324 324 326 330 327 329 329 329 333 331 331 331 332 332 332 333 330 334 333 333 332 331 330 330 333 332 333 334 335 334 332 330
315 316 317 316 316 316 316 316 315 314 313 317 321 321 318 321 324 324 325 324 324 326 325 326 325 327 327 327 330 329 330 333 330 329 333 333 339 336 335 334 333 331 330 330 329 333 334 334 333 333 331 329 328 327
315 316 316 316 316 315 315 315 315 313 316 318 319 321 322 321 323 324 325 325 325 324 326 325 327 326 327 326 330 331 330 331 330 331 333 333 338 336 334 332 331 330 329 333 333 332 330 328 327 328 326 324 323 323
315 315 315 315 315 315 315 315 315 314 315 316 320 322 324 324 323 323 324 325 325 325 325 325 326 326 326 326 327 329 332 329 332 332 331 340 338 337 335 333 332 331 332 332 330 328 327 325 322 322 322 322 322 321
314 314 314 314 314 315 314 314 313 314 317 321 321 324 322 322 322 322 324 325 325 325 325 326 326 325 326 326 327 328 330 331 331 331 338 336 336 335 334 332 332 331 329 328 327 325 324 323 323 322 321 321 320 320
313 313 313 313 314 314 314 311 311 315 316 320 320 323 321 321 322 322 322 324 324 325 325 326 328 330 326 326 327 328 328 328 331 334 334 333 333 330 333 333 330 328 327 325 323 322 320 320 321 320 320 319 318 318
311 309 311 312 313 312 310 310 312 315 318 319 318 319 320 320 323 322 323 323 323 324 327 327 329 329 327 327 328 326 326 329 330 328 333 336 336 334 331 329 327 327 326 326 325 325 324 322 321 321 320 317 316 316
312 310 310 311 309 308 310 311 314 316 318 317 319 318 318 321 322 322 321 321 323 324 325 327 326 328 328 328 326 327 327 331 329 327 331 334 334 330 327 326 326 325 326 327 327 326 323 322 321 320 319 317 316 315
310 309 307 307 309 309 309 311 313 317 317 318 318 319 319 319 321 320 321 321 323 325 326 326 327 328 327 325 327 326 326 326 327 330 332 334 329 327 328 328 324 324 323 325 327 326 325 322 321 320 318 317 317 315
306 306 308 309 309 310 311 311 312 315 316 317 317 317 317 318 318 319 320 320 321 323 324 325 325 324 325 325 324 325 325 325 326 328 329 330 329 330 329 329 328 327 327 327 328 326 325 323 321 319 318 317 315 315
305 307 308 310 310 311 313 314 314 315 315 316 316 317 317 317 318 318 319 319 320 322 322 323 323 324 323 324 325 326 324 323 325 323 324 324 324 325 327 325 325 326 327 326 325 325 324 323 321 320 319 317 316 316
307 308 309 309 310 312 312 313 313 314 315 315 315 315 316 316 316 316 317 318 318 319 320 321 323 322 323 325 324 323 325 326 325 324 323 323 322 322 321 322 323 323 322 322 321 325 323 322 321 320 319 318 316 316
307 308 309 311 311 309 311 313 313 312 314 314 315 316 315 316 316 316 316 316 316 317 318 319 319 320 321 322 323 324 324 324 322 322 321 320 321 322 322 322 321 322 321 320 323 323 319 316 321 320 319 318 316 316
308 310 311 312 310 312 311 313 314 313 315 316 316 317 318 317 317 317 318 316 317 316 315 316 317 317 317 317 318 319 320 321 321 320 320 320 319 319 319 319 320 320 320 320 320 321 320 321 321 319 319 318 317 316
308 309 309 306 311 312 313 314 314 315 316 316 316 317 318 318 319 319 319 319 318 319 319 319 319 319 319 319 319 319 317 316 316 317 317 317 317 317 317 317 317 318 318 318 320 322 320 318 317 317 318 317 316 316
306 309 310 311 312 313 313 314 315 316 316 316 317 317 317 318 318 319 322 324 324 324 322 322 322 321 322 322 320 320 321 321 321 320 319 319 319 318 318 317 317 318 320 321 320 320 320 321 320 318 317 316 315 314
309 310 310 311 312 313 314 315 315 316 316 316 317 317 318 318 319 319 323 322 322 322 322 320 321 320 321 322 323 322 323 322 322 322 322 322 321 322 322 322 323 323 320 319 320 320 321 323 322 319 316 315 313 315
309 309 312 311 312 313 315 315 315 316 316 316 316 318 319 320 323 321 320 320 320 321 320 321 322 322 321 320 322 322 322 322 323 323 322 321 323 322 322 323 321 321 320 322 323 323 323 322 320 318 317 316 316 316
309 309 310 312 312 312 313 315 315 317 318 318 320 320 320 319 318 318 320 321 321 322 323 323 322 322 322 322 322 322 322 322 321 322 323 322 323 321 321 321 321 321 323 321 319 318 318 318 317 317 317 318 318 318
310 310 312 312 313 314 314 315 318 317 317 317 316 316 316 317 321 321 322 323 323 324 324 324 323 322 322 322 322 322 322 322 321 321 320 321 322 321 322 322 322 321 320 320 320 319 317 317 319 319 319 319 318 318
312 312 313 313 314 314 317 317 316 315 315 315 316 317 320 322 324 325 325 324 324 324 323 323 323 323 322 322 322 323 322 322 323 322 321 321 320 321 321 321 321 321 321 321 321 320 320 318 318 319 319 319 319 319
311 311 311 314 316 315 314 316 317 318 320 321 322 321 323 324 323 322 325 325 324 324 323 322 322 321 321 320 320 320 319 321 322 322 322 323 321 319 320 320 319 319 319 320 320 319 318 318 319 319 318 317 317 317
315 315 315 317 320 321 320 321 321 321 321 322 321 322 323 322 321 322 325 321 320 321 323 324 323 322 322 320 320 320 320 319 316 314 317 319 322 321 321 321 320 319 319 320 320 319 317 320 321 320 319 319 318 317